Location: Unspecified
(51.5147°N, 7.4673°E)
Time: 00:34:43
(UTC+01:00)

A-11 Canister half - Pass Details

Date: 23 February 2026
Orbit: 1512 x 1687 km, 47.2° (Epoch: 8 March)

Event Time Altitude Azimuth Distance (km) Brightness Sun altitude
Rises 17:31:47 0° 172° (S) 4,919 11.8 3.3°
Reaches altitude 10° 17:37:19 10° 149° (SSE) 3,945 11.0 2.5°
Maximum altitude 17:41:29 13° 124° (ESE) 3,682 10.7 1.9°
Drops below altitude 10° 17:45:39 10° 99° (E) 3,945 10.6 1.3°
Sets 17:51:07 0° 75° (ENE) 4,919 10.9 0.4°
